EW8371 Weather Reports


Display with metric or nautical units.
time (UTC)temp
F
wind
direction
speed
MPH
gust
MPH
rain 1hr
in
rain 24hr
in
rain mn
in
humidity
%
barometer
mb
20260902071548 66 248 0.0 0.0 0.00 0.32 0.02 1 1014.6
20260902070020 66 248 0.0 0.0 0.00 0.32 0.02 1 1014.7
20260902064515 66 248 0.0 0.0 0.00 0.32 0.02 1 1014.9
20260902063018 66 248 0.0 0.0 0.00 0.34 0.02 1 1015.0
20260902061508 66 248 0.0 0.0 0.00 0.34 0.02 1 1015.1
20260902060100 66 248 0.0 0.0 0.00 0.34 0.02 1 1015.0
20260902054556 66 248 0.0 0.0 0.00 0.34 0.02 1 1015.0
20260902053053 66 248 0.0 0.0 0.00 0.35 0.02 1 1014.7
20260902051546 66 248 0.0 1.0 0.00 0.35 0.02 1 1014.7
20260902050045 66 248 0.0 0.0 0.00 0.35 0.02 1 1014.5
20260902044534 66 248 0.0 0.0 0.00 0.35 0.02 1 1014.3
20260902043029 66 248 0.0 0.0 0.00 0.35 0.02 1 1014.2
20260902041532 66 248 0.0 0.0 0.00 0.35 0.02 1 1014.2
20260902040019 66 248 0.0 1.0 0.00 0.35 0.02 1 1013.9
20260902034515 66 249 0.0 0.0 0.00 0.35 0.02 1 1013.8
20260902033009 66 265 0.0 0.0 0.00 0.35 0.02 1 1013.8
20260902031505 66 265 0.0 3.0 0.00 0.35 0.02 1 1014.0
20260902030031 66 351 0.0 2.0 0.00 0.35 0.02 1 1013.9
20260902024527 66 66 0.0 6.0 0.00 0.35 0.02 1 1013.9
20260902023020 66 360 1.0 6.0 0.00 0.35 0.02 1 1014.2
20260902021525 66 325 1.0 4.0 0.00 0.35 0.02 1 1014.2
20260902020012 66 355 1.0 3.0 0.00 0.35 0.02 1 1014.1
20260902014509 67 5 1.0 2.0 0.00 0.35 0.02 1 1014.1
20260902013100 67 5 2.0 5.0 0.00 0.35 0.02 1 1013.9
20260902011601 67 339 2.0 4.0 0.00 0.35 0.02 1 1013.7
20260902010116 67 71 0.0 3.0 0.00 0.35 0.02 1 1013.6
20260902004546 67 5 0.0 3.0 0.00 0.35 0.02 1 1013.1
20260902003040 67 336 1.0 4.0 0.00 0.35 0.02 1 1012.9
20260902001539 67 9 0.0 3.0 0.00 0.35 0.02 1 1012.8
20260902000044 67 52 1.0 4.0 0.00 0.35 0.02 1 1012.8
20260901234538 67 5 0.0 4.0 0.00 0.35 0.02 1 1012.8
20260901233035 67 5 1.0 4.0 0.00 0.35 0.02 1 1012.8
20260901231542 67 360 1.0 5.0 0.00 0.35 0.02 1 1012.8
20260901230037 67 5 1.0 4.0 0.00 0.35 0.02 1 1012.8
20260901224542 68 360 1.0 5.0 0.00 0.35 0.02 1 1012.7
20260901223016 68 332 2.0 4.0 0.00 0.35 0.02 1 1012.9
20260901221504 68 309 2.0 5.0 0.00 0.35 0.02 1 1012.8
20260901220057 68 360 2.0 5.0 0.00 0.35 0.02 1 1012.9
20260901214554 68 12 0.0 2.0 0.00 0.35 0.02 1 1012.9
20260901213056 68 335 0.0 2.0 0.00 0.35 0.02 1 1012.6
20260901211545 68 336 2.0 4.0 0.00 0.35 0.02 1 1012.6
20260901210041 68 344 0.0 2.0 0.00 0.35 0.02 1 1012.6
20260901204536 68 94 0.0 2.0 0.00 0.35 0.02 1 1012.4
20260901203029 68 351 1.0 5.0 0.00 0.35 0.02 1 1012.5
20260901201524 68 343 0.0 7.0 0.01 0.35 0.02 1 1012.3
20260901200037 68 5 1.0 4.0 0.01 0.35 0.02 1 1012.4
20260901194514 68 360 1.0 6.0 0.01 0.35 0.02 1 1012.5
20260901193009 68 36 2.0 5.0 0.01 0.35 0.02 1 1012.5
20260901191505 68 332 3.0 6.0 0.00 0.34 0.01 1 1012.4
20260901190123 68 25 3.0 9.0 0.00 0.34 0.01 1 1012.2
20260901184555 68 20 3.0 6.0 0.00 0.34 0.01 1 1012.0
20260901183051 68 338 3.0 8.0 0.00 0.34 0.01 1 1011.9
20260901181546 68 43 4.0 9.0 0.00 0.34 0.01 1 1011.9
20260901180042 68 360 4.0 10.0 0.00 0.34 0.01 1 1012.0
20260901174544 69 360 3.0 9.0 0.00 0.34 0.01 1 1011.9
20260901173030 69 322 5.0 10.0 0.00 0.35 0.01 1 1011.8
20260901171525 69 42 0.0 2.0 0.00 0.35 0.01 1 1011.6
20260901170030 69 288 0.0 2.0 0.00 0.35 0.01 1 1011.5
20260901164516 68 350 0.0 3.0 0.01 0.35 0.01 1 1011.6
20260901163017 67 321 0.0 3.0 0.01 0.35 0.01 1 1011.6
20260901161506 67 350 1.0 3.0 0.01 0.35 0.01 1 1011.8
20260901160001 67 30 1.0 4.0 0.01 0.35 0.01 1 1011.8
20260901154604 67 18 2.0 3.0 0.00 0.34 0.00 1 1012.0
20260901153117 66 19 2.0 8.0 0.00 0.34 0.34 1 1012.0
20260901151546 66 30 3.0 8.0 0.00 0.34 0.34 1 1012.2
20260901150041 66 339 2.0 4.0 0.00 0.34 0.34 1 1012.1
20260901144537 66 345 2.0 4.0 0.00 0.34 0.34 1 1012.1
20260901143030 66 5 1.0 2.0 0.00 0.34 0.34 1 1012.0
20260901141535 66 351 1.0 2.0 0.00 0.34 0.34 1 1012.0
20260901140027 66 360 0.0 3.0 0.00 0.34 0.34 1 1012.1
20260901134514 66 348 0.0 3.0 0.00 0.34 0.34 1 1012.0
20260901133009 66 292 0.0 4.0 0.00 0.34 0.34 1 1012.2
20260901131512 67 5 1.0 2.0 0.00 0.34 0.34 1 1012.2
20260901130004 66 34 1.0 2.0 0.00 0.34 0.34 1 1012.3
20260901124556 67 26 1.0 4.0 0.00 0.34 0.34 1 1012.3
20260901123050 66 182 0.0 1.0 0.00 0.34 0.34 1 1012.5
20260901121546 66 182 0.0 0.0 0.00 0.34 0.34 1 1012.8
20260901120041 66 182 0.0 2.0 0.00 0.34 0.34 1 1012.7
20260901114534 66 186 3.0 5.0 0.05 0.34 0.34 1 1012.9
20260901113030 66 131 0.0 0.0 0.12 0.34 0.34 1 1012.9
20260901111526 66 131 0.0 0.0 0.13 0.34 0.34 1 1012.6
20260901110024 65 131 0.0 0.0 0.13 0.34 0.34 1 1012.8
20260901104528 66 126 0.0 2.0 0.08 0.28 0.28 1 1012.9
20260901103021 65 239 0.0 1.0 0.01 0.22 0.22 1 1012.9
20260901101519 65 239 0.0 2.0 0.00 0.21 0.21 1 1012.4
20260901100017 65 166 0.0 0.0 0.10 0.21 0.21 1 1012.5
20260901094509 65 166 0.0 0.0 0.12 0.21 0.21 1 1012.3
20260901093002 65 166 0.0 1.0 0.13 0.21 0.21 1 1012.3
20260901091558 65 163 0.0 3.0 0.14 0.21 0.21 1 1012.4
20260901084607 65 156 0.0 2.0 0.02 0.09 0.09 1 1012.4
20260901083050 65 155 0.0 2.0 0.01 0.08 0.08 1 1012.4
20260901081544 65 192 1.0 3.0 0.00 0.07 0.07 1 1012.4
20260901080039 65 168 0.0 0.0 0.00 0.07 0.07 1 1012.4
20260901074536 64 183 0.0 0.0 0.01 0.07 0.07 1 1012.6
20260901073101 64 183 0.0 0.0 0.03 0.07 0.07 1 1012.7